This demonstration page uses our WeatherBlox Daily Observations layout. Learn more.

38.89511, -77.03637

Hourly Observations for November 27, 2017

Temp ( °F °C ) Dew Point ( °F °C ) Humidity (%) Winds ( mph kmh ) Pressure ( in mb ) Visibility ( mi km ) Precip ( " mm )
12:52 am 00:52 Mostly Cloudy 43 6.1 27 -2.8 53 53 S 5 7 30.06 1018 10 16.09344 0 0
1:52 am 01:52 Cloudy 41 5 34 1.1 76 76 S 7 11 30.06 1018 10 16.09344 0 0
2:52 am 02:52 Cloudy 40 4.4 33 0.6 77 77 SSW 6 9 30.09 1019 10 16.09344 0 0
3:52 am 03:52 Cloudy 40 4.4 31 -0.6 70 70 S 6 9 30.09 1019 10 16.09344 0 0
4:52 am 04:52 Partly Cloudy 39 3.9 31 -0.6 73 73 SSW 6 9 30.09 1019 10 16.09344 0 0
5:52 am 05:52 Partly Cloudy 38 3.3 29 -1.7 70 70 S 7 11 30.12 1020 10 16.09344 0 0
6:52 am 06:52 Mostly Clear 39 3.9 29 -1.7 67 67 SSW 6 9 30.12 1020 10 16.09344 0 0
7:52 am 07:52 Mostly Sunny 41 5 29 -1.7 62 62 S 7 11 30.15 1021 10 16.09344 0 0
8:52 am 08:52 Mostly Sunny 44 6.7 31 -0.6 60 60 S 5 7 30.15 1021 10 16.09344 0 0
9:52 am 09:52 Mostly Sunny 48 8.9 35 1.7 61 61 S 7 11 30.15 1021 10 16.09344 0 0
10:52 am 10:52 Partly Cloudy 56 13.3 30 -1.1 37 37 NW 12 19 30.15 1021 10 16.09344 0 0
11:52 am 11:52 Mostly Sunny 58 14.4 31 -0.6 36 36 W 9 15 30.12 1020 10 16.09344 0 0
12:52 pm 12:52 Mostly Sunny 59 15 31 -0.6 35 35 W 7 11 30.12 1020 10 16.09344 0 0
1:52 pm 13:52 Mostly Sunny 61 16.1 32 0 34 34 WNW 14 22 30.12 1020 10 16.09344 0 0
2:52 pm 14:52 Mostly Sunny 61 16.1 32 0 34 34 WSW 12 19 30.12 1020 10 16.09344 0 0
3:52 pm 15:52 Partly Cloudy 61 16.1 32 0 34 34 WNW 8 13 30.12 1020 10 16.09344 0 0
4:52 pm 16:52 Mostly Cloudy 59 15 32 0 36 36 SW 5 7 30.15 1021 10 16.09344 0 0
5:52 pm 17:52 Mostly Cloudy 52 11.1 38 3.3 59 59 S 7 11 30.15 1021 10 16.09344 0 0
6:52 pm 18:52 Partly Cloudy 52 11.1 33 0.6 49 49 SSW 3 6 30.18 1022 10 16.09344 0 0
7:52 pm 19:52 Mostly Cloudy 51 10.6 35 1.7 54 54 S 3 6 30.21 1023 10 16.09344 0 0
8:52 pm 20:52 Partly Cloudy 46 7.8 38 3.3 73 73 S 7 11 30.21 1023 10 16.09344 0 0
9:52 pm 21:52 Partly Cloudy 48 8.9 35 1.7 61 61 SSW 3 6 30.24 1024 10 16.09344 0 0
10:52 pm 22:52 Mostly Cloudy 45 7.2 35 1.7 68 68 S 3 6 30.24 1024 10 16.09344 0 0
11:52 pm 23:52 Partly Cloudy 44 6.7 37 2.8 76 76 SSW 5 7 30.24 1024 10 16.09344 0 0

Powered by AerisWeather